Location: Beacon Field Observatory
(38.7700°N, 77.0829°W)
Time: 19:03:15
(UTC-05:00)

UKube-1 - Pass Details

Date: 09 December 2019
Orbit: 614 x 618 km, 98.5° (Epoch: 21 January)

Event Time Altitude Azimuth Distance (km) Brightness Sun altitude
Rises 17:29:30 0° 15° (NNE) 2,897 ? -8.4°
Reaches altitude 10° 17:31:42 10° 18° (NNE) 1,988 ? -8.8°
Maximum altitude 17:36:00 69° 102° (ESE) 663 ? -9.5°
Drops below altitude 10° 17:40:17 10° 186° (S) 1,975 ? -10.3°
Sets 17:42:28 0° 189° (S) 2,876 ? -10.7°
